Terminal Aerodrome Forecast
Issued by NWS Grand Forks, ND

Home | Current Version | Previous Version | Text Only | Print | Product List | Glossary Off
Versions: 1 2 3 4 5 6 7 8 9 10 11 12 13 14 15 16 17 18 19 20

000
FTUS43 KFGF 181200 AAA
TAFGFK
TAF AMD
KGFK 181225Z 1812/1912 VRB03KT P6SM SCT005
      TEMPO 1813/1817 4SM BR BKN005
     FM181700 16016KT P6SM SCT015
     FM182100 16017G25KT P6SM SCT200
     FM190300 18015G25KT P6SM BKN120=

USA.gov is the U.S. government's official web portal to all federal, state and local government web resources and services.